Zurück zum Katalog

THOR ABLESTAR DEB

AktivLEO
NORAD 327·DEBRIS·🇺🇸 United States

Gestartet Jun 29, 1961 von Cape Canaveral Space Force Station

Loading…

Nächste Überflüge (nächste 24 Stunden)

TLE

AktuellSource: Space-Track

Epoche: Sep 14, 2026, 03:38 UTC

1 00327U 61015DD  26257.15157896  .00000129  00000-0  15851-3 0  9994
2 00327  66.5429 168.3489 0104767  74.8936 286.3703 13.90902609299117

Verfolge THOR ABLESTAR DEB in Echtzeit mit AllMySat

Download on the App Store